Погода в Богатом

Россия / Республика Крым     45°01′38″N   34°46′03″E
темп.,
°C
ветер,
м/с
пор.,
м/с
влажн.,
%
обл.,
%
осадки,
мм/ч
давл.,
гПа
погр.,
м
24 мая, вт
вт2400:00+9з239298 0.1 100993
03:00+9сз2497100 0.8 1009233
06:00+9сз229485 0.4 101181
09:00+13с35715 0.6 1012964
12:00+16с444992 0.1 10121911
15:00+15ссв235593 0.2 10131277
18:00+14с125951 0.2 1014563
21:00+11ююз127597 0.3 101619
25 мая, ср
ср2500:00+10зюз227462 0.1 101716
03:00+9з12805 0.1 101812
06:00+10зюз128028 0.0 101915
09:00+16зюз12505 0.1 10191164
12:00+18сз234399 0.1 10192177
15:00+18з144599 0.1 10191863
18:00+16юз125727 0.1 1020861
21:00+12ююз2278100 0.2 102120
26 мая, чт
чт2600:00+11юз227673 0.0 102116
03:00+10ююз227421 0.0 102110
06:00+11ю227671 0.0 102125
09:00+16ю454887 0.0 1020738
12:00+18ю454125 0.0 10201139
15:00+19ю454388 0.0 10191158
18:00+18юз235122 0.0 1019648
21:00+12ю226960 0.0 102036
27 мая, пт
пт2700:00+14юз115630 0.0 102024
03:00+12юз22495 0.0 102013
06:00+12юз22664 0.0 102023
09:00+19зсз24595 0.0 1019801
12:00+21сз44455 0.0 10191805
15:00+22ссз243929 0.0 10182075
18:00+20в225152 0.0 1017756
21:00+16ююз226741 0.0 101824
28 мая, сб
сб2800:00+14ююз22680 0.0 101720
03:00+13ююз22680 0.0 101618
06:00+14ю33673 0.0 101537
09:00+20ю33460 0.0 1014595
12:00+23юз13390 0.0 10141711
15:00+24зсз134110 0.0 10131730
18:00+21сз34511 0.0 1013624
21:00+15ю11671 0.0 101411